Volver al catálogo

STARLINK-5996

ActivoComunicacionesVLEO
NORAD 57227·PAYLOAD·🇺🇸 United States

Lanzado Jul 7, 2023 desde Vandenberg Space Force Base

Loading…

Próximos Pases (próximas 24 horas)

TLE

ActualizadoSource: CelesTrak SupGP

Época: Sep 15, 2026, 01:52 UTC

1 57227C 23094K   26258.07826389 -.00055486  00000+0 -20095-2 0  2582
2 57227  43.0018  44.3849 0001951 259.1317  43.2532 15.27608303    12

Sigue STARLINK-5996 en tiempo real con AllMySat

Download on the App Store